EW2093 Weather Reports


time (UTC)temp
C
wind
direction
speed
KPH
gust
KPH
rain 1hr
cm
rain 24hr
cm
rain mn
cm
humidity
%
barometer
mb
20260506164031 12 309 4.8 14.5 0.00 0.10 0.03 80 1014.3
20260506163533 12 24 6.4 16.1 0.00 0.10 0.03 80 1014.4
20260506163034 12 24 9.7 16.1 0.00 0.10 0.03 80 1014.3
20260506162535 12 34 8.0 14.5 0.00 0.10 0.03 81 1014.3
20260506162034 12 2 6.4 14.5 0.00 0.10 0.03 81 1014.4
20260506161536 11 7 6.4 17.7 0.00 0.10 0.03 82 1014.4
20260506161034 11 60 9.7 20.9 0.00 0.10 0.03 81 1014.5
20260506160534 12 68 12.9 20.9 0.00 0.10 0.03 80 1014.5
20260506160037 12 12 6.4 16.1 0.00 0.10 0.03 78 1014.5
20260506155556 12 43 8.0 16.1 0.00 0.20 0.03 78 1014.5
20260506155055 12 350 9.7 14.5 0.00 0.20 0.03 78 1014.5
20260506154534 12 26 6.4 12.9 0.00 0.20 0.03 79 1014.7
20260506154034 12 38 4.8 12.9 0.00 0.20 0.03 80 1014.7
20260506153601 12 56 6.4 12.9 0.00 0.20 0.03 80 1014.7
20260506153040 12 309 3.2 11.3 0.00 0.20 0.03 81 1014.8
20260506152520 12 36 4.8 11.3 0.00 0.20 0.03 80 1014.8
20260506152020 12 288 6.4 11.3 0.00 0.20 0.03 80 1014.7
20260506151537 12 12 6.4 14.5 0.00 0.20 0.03 79 1014.7
20260506151038 12 340 6.4 14.5 0.00 0.20 0.03 79 1014.8
20260506150538 12 316 4.8 14.5 0.00 0.20 0.03 79 1014.8
20260506150039 12 333 4.8 11.3 0.00 0.20 0.03 80 1014.8
20260506145539 12 7 4.8 19.3 0.00 0.20 0.03 79 1014.8
20260506145031 12 298 6.4 19.3 0.00 0.20 0.03 78 1014.9
20260506144600 12 347 8.0 16.1 0.00 0.20 0.03 78 1014.8
20260506144041 12 337 8.0 24.1 0.00 0.20 0.03 79 1014.9
20260506143540 12 20 9.7 24.1 0.00 0.20 0.03 81 1015.0
20260506143040 12 348 8.0 19.3 0.00 0.20 0.03 79 1015.0
20260506142540 12 330 4.8 12.9 0.00 0.20 0.03 79 1015.0
20260506142019 12 7 4.8 19.3 0.00 0.20 0.03 76 1015.0
20260506141520 13 29 6.4 12.9 0.00 0.20 0.03 73 1015.0
20260506141052 13 350 6.4 12.9 0.00 0.20 0.03 72 1014.9
20260506140552 13 351 4.8 11.3 0.00 0.20 0.03 71 1014.9
20260506140030 13 302 4.8 8.0 0.00 0.20 0.03 72 1015.0
20260506135530 13 301 3.2 6.4 0.00 0.20 0.03 73 1015.0
20260506135032 12 299 3.2 11.3 0.00 0.20 0.03 75 1015.1
20260506134533 12 283 3.2 6.4 0.00 0.20 0.03 75 1015.1
20260506134035 12 297 3.2 6.4 0.00 0.20 0.03 74 1015.1
20260506133536 12 301 3.2 9.7 0.00 0.20 0.03 76 1015.1
20260506133059 12 323 3.2 8.0 0.00 0.20 0.03 77 1015.0
20260506132537 12 305 4.8 8.0 0.00 0.20 0.03 76 1015.1
20260506132019 12 298 4.8 8.0 0.00 0.20 0.03 78 1015.2
20260506131520 12 283 3.2 8.0 0.00 0.20 0.03 78 1015.1
20260506131050 12 307 4.8 12.9 0.00 0.20 0.03 77 1015.1
20260506130530 12 312 4.8 12.9 0.00 0.20 0.03 77 1015.1
20260506130030 12 308 4.8 11.3 0.00 0.20 0.03 78 1015.1
20260506125531 12 292 6.4 11.3 0.00 0.71 0.03 77 1015.1
20260506125052 12 349 4.8 11.3 0.00 0.71 0.03 76 1015.0
20260506124530 12 337 6.4 12.9 0.00 0.71 0.03 76 1015.0
20260506124027 12 311 6.4 14.5 0.00 0.71 0.03 76 1015.0
20260506123529 12 12 6.4 17.7 0.00 0.71 0.03 75 1015.0
20260506123030 12 315 8.0 17.7 0.00 0.71 0.03 73 1014.9
20260506122531 13 304 8.0 16.1 0.00 0.71 0.03 72 1014.9
20260506122031 13 284 4.8 9.7 0.00 0.71 0.03 71 1014.9
20260506121532 13 293 4.8 11.3 0.00 0.71 0.03 70 1014.9
20260506121032 13 281 4.8 8.0 0.00 0.71 0.03 73 1014.8
20260506120533 12 296 3.2 8.0 0.00 0.71 0.03 73 1014.8
20260506120121 12 304 3.2 9.7 0.00 0.71 0.03 73 1014.9
20260506115557 12 297 4.8 9.7 0.00 0.99 0.03 73 1014.9
20260506115038 12 303 3.2 11.3 0.00 0.99 0.03 73 1014.9
20260506114520 12 289 4.8 11.3 0.00 0.99 0.03 72 1014.8
20260506114019 13 304 3.2 9.7 0.00 0.99 0.03 71 1014.9
20260506113534 13 305 4.8 9.7 0.00 0.99 0.03 71 1014.8
20260506113018 13 283 3.2 12.9 0.00 0.99 0.03 71 1014.8
20260506112519 13 284 6.4 12.9 0.00 0.99 0.03 70 1014.9
20260506112020 13 328 3.2 8.0 0.00 0.99 0.03 70 1014.9
20260506111520 13 287 3.2 11.3 0.00 0.99 0.03 70 1014.8
20260506111020 13 30 3.2 11.3 0.00 0.99 0.03 70 1014.9
20260506110558 13 44 3.2 12.9 0.00 0.99 0.03 70 1014.9
20260506110019 13 51 4.8 12.9 0.00 0.99 0.03 70 1014.9
20260506105519 13 307 1.6 11.3 0.00 1.40 0.03 71 1014.9
20260506105059 13 315 4.8 11.3 0.00 1.40 0.03 70 1014.9
20260506104521 13 257 4.8 9.7 0.00 1.40 0.03 70 1014.8
20260506104043 13 290 4.8 11.3 0.00 1.40 0.03 69 1014.8
20260506103519 13 285 4.8 16.1 0.00 1.40 0.03 69 1014.8
20260506103021 13 281 8.0 16.1 0.00 1.40 0.03 69 1014.8
20260506102520 13 309 4.8 12.9 0.00 1.40 0.03 70 1014.8
20260506102051 12 286 3.2 16.1 0.00 1.40 0.03 69 1014.8
20260506101529 12 7 9.7 16.1 0.00 1.40 0.03 69 1014.8
20260506101046 12 291 9.7 12.9 0.00 1.40 0.03 70 1014.9
20260506100529 12 291 8.0 16.1 0.00 1.40 0.03 70 1014.9
20260506100030 12 291 9.7 16.1 0.00 1.40 0.03 69 1014.9
20260506095532 12 307 6.4 12.9 0.00 1.40 0.03 68 1014.9
20260506095033 13 320 4.8 12.9 0.00 1.40 0.03 69 1014.8
20260506094556 13 309 6.4 14.5 0.00 1.40 0.03 68 1014.8
20260506094036 13 305 9.7 14.5 0.00 1.40 0.03 70 1014.9
20260506093537 13 300 4.8 11.3 0.00 1.40 0.03 72 1014.9
20260506093058 13 296 3.2 6.4 0.00 1.40 0.03 75 1014.9
20260506092538 12 274 3.2 8.0 0.00 1.40 0.03 75 1014.9
20260506092019 12 286 4.8 8.0 0.00 1.40 0.03 75 1014.9
20260506091521 12 272 4.8 8.0 0.00 1.40 0.03 76 1014.8
20260506091024 12 280 1.6 9.7 0.00 1.40 0.03 79 1014.9
20260506090518 12 311 4.8 9.7 0.00 1.40 0.03 77 1014.8
20260506090019 12 317 4.8 11.3 0.00 1.40 0.03 78 1014.9
20260506085521 12 317 1.6 8.0 0.00 1.40 0.03 83 1014.9
20260506085023 11 133 3.2 6.4 0.00 1.40 0.03 83 1014.9
20260506084525 11 21 3.2 4.8 0.00 1.40 0.03 84 1014.9
20260506084025 10 20 1.6 4.8 0.00 1.40 0.03 85 1014.9
20260506083525 10 20 1.6 4.8 0.00 1.40 0.03 86 1014.9
20260506083032 10 16 1.6 4.8 0.00 1.40 0.03 86 1014.9
20260506082551 10 12 1.6 4.8 0.00 1.40 0.03 86 1014.9
20260506082031 10 12 3.2 4.8 0.00 1.40 0.03 87 1014.9
20260506081532 10 24 3.2 4.8 0.00 1.40 0.03 88 1014.9
20260506081032 10 295 1.6 3.2 0.00 1.40 0.03 89 1014.9
20260506080534 9 295 0.0 3.2 0.00 1.40 0.03 89 1014.9
20260506073036 8 65 1.6 3.2 0.10 1.40 0.03 93 1014.8
20260506072537 8 65 1.6 3.2 0.10 1.40 0.03 93 1014.8
20260506072037 7 65 1.6 3.2 0.10 1.40 0.03 94 1014.8
20260506071559 7 65 1.6 3.2 0.10 1.40 0.03 94 1014.7
20260506071019 7 65 1.6 4.8 0.10 1.40 0.03 94 1014.8
20260506070521 7 70 1.6 4.8 0.10 1.40 0.03 94 1014.7
20260506062030 6 146 0.0 0.0 0.00 1.30 0.00 95 1014.6
20260506061531 6 146 0.0 0.0 0.00 1.30 0.00 95 1014.6
20260506061032 6 146 0.0 0.0 0.00 1.30 0.00 95 1014.6
20260506060533 6 147 0.0 3.2 0.00 1.30 0.00 95 1014.7
20260506051041 6 237 0.0 3.2 0.00 1.30 0.00 95 1014.2
20260506050534 6 237 0.0 3.2 0.00 1.30 0.00 95 1014.2
20260506045041 6 242 0.0 3.2 0.00 1.40 0.00 95 1014.2
20260506044533 6 242 1.6 4.8 0.00 1.40 0.00 95 1014.2
20260506044041 6 242 1.6 4.8 0.00 1.40 0.00 95 1014.3
20260506043535 6 241 1.6 4.8 0.00 1.40 0.00 95 1014.3
20260506043055 6 235 1.6 3.2 0.00 1.40 0.00 95 1014.2
20260506042535 6 233 1.6 3.2 0.00 1.40 0.00 95 1014.2
20260506042036 6 213 1.6 3.2 0.00 1.40 0.00 95 1014.2
20260506041518 6 212 1.6 3.2 0.00 1.40 0.00 95 1014.3
20260506041058 6 212 0.0 1.6 0.00 1.40 0.00 95 1014.2
20260506040519 6 211 0.0 0.0 0.00 1.40 0.00 95 1014.2
20260506040039 6 211 0.0 3.2 0.00 1.40 0.00 95 1014.2
20260506035533 6 211 0.0 3.2 0.00 1.50 0.00 95 1014.2
20260506035043 6 211 1.6 3.2 0.00 1.50 0.00 95 1014.2
20260506034543 6 209 0.0 1.6 0.00 1.50 0.00 94 1014.2
20260506034019 6 210 0.0 1.6 0.00 1.50 0.00 94 1014.2
20260506033522 6 210 0.0 1.6 0.00 1.50 0.00 95 1014.2
20260506033022 6 210 0.0 1.6 0.00 1.50 0.00 95 1014.2
20260506032521 6 210 0.0 1.6 0.00 1.50 0.00 95 1014.2
20260506032043 6 210 0.0 0.0 0.00 1.50 0.00 95 1014.3
20260506031523 6 210 0.0 1.6 0.00 1.50 0.00 95 1014.3
20260506031025 6 210 0.0 1.6 0.00 1.50 0.00 95 1014.3
20260506030534 6 210 1.6 1.6 0.00 1.50 0.00 95 1014.4
20260506030034 6 210 0.0 1.6 0.00 1.50 0.00 95 1014.4
20260506025555 6 210 0.0 0.0 0.00 1.50 0.00 94 1014.3
20260506025035 6 210 0.0 0.0 0.00 1.50 0.00 94 1014.3
20260506024536 6 210 0.0 0.0 0.00 1.50 0.00 94 1014.3
20260506024034 6 210 0.0 1.6 0.00 1.50 0.00 95 1014.3
20260506023537 6 210 0.0 1.6 0.00 1.50 0.00 95 1014.2
20260506023038 6 210 0.0 1.6 0.00 1.50 0.00 94 1014.3
20260506022519 6 210 0.0 3.2 0.00 1.50 0.00 94 1014.2
20260506022023 6 210 0.0 1.6 0.00 1.50 0.00 94 1014.2
20260506021544 6 210 0.0 1.6 0.00 1.50 0.00 94 1014.3
20260506021024 6 210 0.0 1.6 0.00 1.50 0.00 94 1014.3
20260506020526 6 210 0.0 1.6 0.00 1.50 0.00 94 1014.3
20260506020054 6 210 0.0 1.6 0.00 1.50 0.00 94 1014.3
20260506015555 6 210 0.0 0.0 0.00 1.50 0.00 94 1014.3
20260506015033 6 210 0.0 0.0 0.00 1.50 0.00 94 1014.4
20260506014534 6 210 0.0 3.2 0.00 1.50 0.00 94 1014.4
20260506014034 6 210 1.6 3.2 0.00 1.50 0.00 94 1014.4
20260506013533 6 210 0.0 0.0 0.00 1.50 0.00 94 1014.4
20260506013034 6 210 0.0 1.6 0.00 1.50 0.00 94 1014.4
20260506012535 6 210 0.0 1.6 0.00 1.50 0.00 94 1014.4
20260506012018 6 210 0.0 0.0 0.00 1.50 0.00 94 1014.4
20260506011519 6 210 0.0 0.0 0.00 1.50 0.00 94 1014.5
20260506011020 6 210 0.0 1.6 0.00 1.50 0.00 94 1014.6
20260506010521 6 210 0.0 1.6 0.00 1.50 0.00 94 1014.7
20260506010042 6 210 0.0 0.0 0.00 1.50 0.00 94 1014.7
20260506005523 6 210 0.0 0.0 0.00 1.50 0.00 94 1014.7
20260506005041 6 210 0.0 0.0 0.00 1.50 0.00 94 1014.8
20260506004520 6 210 0.0 0.0 0.00 1.50 0.00 94 1014.8
20260506004021 6 210 0.0 0.0 0.00 1.50 0.00 94 1014.9
20260506003523 6 210 0.0 1.6 0.00 1.50 0.00 94 1015.0
20260506003026 6 210 0.0 1.6 0.00 1.50 0.00 94 1015.0
20260506002554 6 210 0.0 1.6 0.00 1.50 0.00 94 1015.1
20260506002054 6 210 0.0 3.2 0.00 1.50 0.00 94 1015.0
20260506001549 6 210 1.6 3.2 0.00 1.50 0.00 94 1015.1
20260506001030 6 210 0.0 1.6 0.00 1.50 0.00 94 1015.1
20260506000533 6 210 0.0 1.6 0.00 1.50 0.00 94 1015.1
20260506000019 6 210 0.0 1.6 0.00 1.50 0.00 94 1015.1
20260505235522 6 210 0.0 1.6 0.00 1.50 0.00 94 1015.0
20260505235023 6 210 0.0 1.6 0.00 1.50 0.00 94 1015.0
20260505234543 6 210 0.0 1.6 0.00 1.50 0.00 93 1015.0
20260505234022 6 210 0.0 1.6 0.00 1.50 0.00 93 1014.9
20260505233525 6 210 0.0 1.6 0.00 1.50 0.00 93 1014.9
20260505233019 6 210 1.6 1.6 0.00 1.50 0.00 93 1015.0
20260505232519 6 210 0.0 1.6 0.00 1.50 0.00 93 1015.1
20260505232022 6 210 0.0 0.0 0.00 1.50 0.00 93 1015.1
20260505231526 6 210 0.0 0.0 0.00 1.50 0.00 93 1015.1
20260505231027 6 210 0.0 3.2 0.00 1.50 0.00 92 1015.1
20260505230529 6 210 1.6 3.2 0.00 1.50 0.00 92 1015.1
20260505230024 6 214 0.0 1.6 0.00 1.50 0.00 92 1015.1
20260505225525 6 214 0.0 1.6 0.00 1.50 0.00 92 1015.1
20260505225028 6 214 0.0 1.6 0.00 1.50 0.00 92 1015.1
20260505224550 6 214 0.0 3.2 0.00 1.50 0.00 92 1015.1
20260505224032 6 214 1.6 4.8 0.00 1.50 0.00 92 1015.1
20260505223533 6 214 3.2 8.0 0.00 1.50 0.00 92 1015.1
20260505223033 6 212 4.8 8.0 0.00 1.50 0.00 92 1015.2
20260505222603 6 220 1.6 3.2 0.00 1.50 0.00 92 1015.2
20260505222042 6 220 0.0 6.4 0.00 1.50 0.00 92 1015.2
20260505221534 6 220 0.0 6.4 0.00 1.50 0.00 92 1015.2
20260505221035 7 227 3.2 6.4 0.00 1.50 0.00 92 1015.3
20260505220537 7 288 0.0 3.2 0.00 1.50 0.00 92 1015.3
20260505220039 7 288 0.0 3.2 0.00 1.50 0.00 92 1015.3
20260505215521 7 288 3.2 3.2 0.00 1.50 0.30 92 1015.3
20260505215041 7 289 0.0 3.2 0.00 1.50 0.30 92 1015.3
20260505214525 7 289 0.0 3.2 0.00 1.50 0.30 92 1015.3
20260505214028 7 289 1.6 3.2 0.00 1.50 0.30 91 1015.4
20260505213519 7 289 0.0 3.2 0.00 1.50 0.30 92 1015.4
20260505213021 7 289 0.0 3.2 0.00 1.50 0.30 91 1015.4
20260505212520 7 289 0.0 1.6 0.00 1.50 0.30 91 1015.4
20260505212022 7 289 0.0 0.0 0.00 1.50 0.30 91 1015.4
20260505211526 7 289 0.0 1.6 0.00 1.50 0.30 91 1015.4
20260505211025 8 289 0.0 3.2 0.00 1.50 0.30 91 1015.4
20260505210554 8 289 0.0 3.2 0.00 1.50 0.30 91 1015.3
20260505210033 8 289 1.6 3.2 0.00 1.50 0.30 91 1015.4
20260505205536 8 289 1.6 3.2 0.00 1.50 0.30 91 1015.3
20260505205037 8 289 0.0 1.6 0.00 1.50 0.30 91 1015.4
20260505204559 8 289 0.0 3.2 0.00 1.50 0.30 91 1015.4
20260505204020 8 289 1.6 4.8 0.00 1.50 0.30 91 1015.3
20260505203521 8 289 1.6 4.8 0.00 1.50 0.30 91 1015.3
20260505203021 8 290 1.6 6.4 0.00 1.50 0.30 91 1015.3
20260505202521 8 294 3.2 6.4 0.00 1.50 0.30 91 1015.2
20260505202021 8 297 3.2 6.4 0.00 1.50 0.30 91 1015.2
20260505201521 8 244 3.2 4.8 0.00 1.50 0.30 91 1015.2
20260505201045 8 231 1.6 3.2 0.00 1.50 0.30 91 1015.1
20260505200546 8 231 1.6 3.2 0.00 1.50 0.30 91 1015.1
20260505200025 8 230 1.6 1.6 0.00 1.50 0.30 91 1015.1
20260505195524 8 230 0.0 3.2 0.00 1.50 0.30 91 1015.1
20260505195025 8 230 0.0 3.2 0.00 1.50 0.30 91 1015.0
20260505194526 8 230 1.6 3.2 0.00 1.50 0.30 91 1015.0
20260505194023 8 230 0.0 1.6 0.00 1.50 0.30 91 1015.0
20260505193525 8 230 1.6 3.2 0.00 1.50 0.30 91 1015.0
20260505193048 8 230 1.6 3.2 0.00 1.50 0.30 90 1014.9
20260505192527 8 230 0.0 3.2 0.00 1.50 0.30 90 1014.8
20260505192059 8 230 0.0 3.2 0.00 1.50 0.30 90 1014.8
20260505191520 8 230 0.0 1.6 0.00 1.50 0.30 90 1014.9
20260505191023 8 230 1.6 4.8 0.00 1.50 0.30 90 1014.8
20260505190545 8 230 3.2 6.4 0.00 1.50 0.30 89 1014.7
20260505190025 8 225 3.2 4.8 0.00 1.50 0.30 89 1014.7
20260505185524 8 249 1.6 4.8 0.00 1.50 0.30 89 1014.7
20260505185024 9 251 3.2 4.8 0.00 1.50 0.30 88 1014.7
20260505184524 9 234 3.2 4.8 0.00 1.50 0.30 88 1014.7
20260505184047 9 279 1.6 3.2 0.00 1.50 0.30 88 1014.6
20260505183506 9 280 1.6 4.8 0.00 1.50 0.30 88 1014.6
20260505181415 9 301 3.2 6.4 0.00 1.50 0.30 87 1014.5
20260505180915 9 300 3.2 6.4 0.00 1.50 0.30 87 1014.5
20260505180414 9 309 3.2 4.8 0.00 1.50 0.30 86 1014.4
20260505175915 9 313 3.2 8.0 0.00 1.50 0.30 86 1014.4
20260505175450 9 349 4.8 8.0 0.00 1.50 0.30 86 1014.4
20260505174928 10 294 4.8 9.7 0.00 1.50 0.30 85 1014.4
20260505174427 10 342 4.8 19.3 0.00 1.50 0.30 85 1014.4
20260505173945 10 300 4.8 19.3 0.00 1.50 0.30 84 1014.3
20260505173441 10 292 8.0 19.3 0.00 1.50 0.30 83 1014.4
20260505172917 10 318 8.0 19.3 0.00 1.50 0.30 83 1014.3
20260505172443 11 288 8.0 12.9 0.00 1.50 0.30 84 1014.4
20260505171921 11 304 3.2 8.0 0.00 1.50 0.30 85 1014.4
20260505171420 11 295 3.2 6.4 0.00 1.50 0.30 84 1014.5
20260505170919 11 285 4.8 6.4 0.00 1.50 0.30 84 1014.5
20260505170437 11 289 3.2 6.4 0.00 1.50 0.30 83 1014.5
20260505165933 11 297 3.2 6.4 0.00 1.50 0.30 82 1014.4
20260505165423 11 297 3.2 6.4 0.00 1.50 0.30 81 1014.5
20260505164920 11 313 3.2 4.8 0.00 1.50 0.30 81 1014.4